| time (UTC) | temp F | wind direction | speed knots | gust knots | rain 1hr in | rain 24hr in | rain mn in | humidity % | barometer mb |
| 20260505003001 | 49 | 285 | 0.0 | 0.0 | 0.00 | 0.00 | 0.00 | 43 | 1003.7 |
| 20260505001535 | 49 | 300 | 0.0 | 0.0 | 0.00 | 0.00 | 0.00 | 43 | 1003.5 |
| 20260505000034 | 50 | 280 | 0.0 | 0.0 | 0.00 | 0.00 | 0.00 | 43 | 1003.3 |
| 20260504234617 | 51 | 307 | 0.0 | 0.0 | 0.00 | 0.00 | 0.00 | 41 | 1003.0 |
| 20260504233051 | 51 | 351 | 0.0 | 0.0 | 0.00 | 0.00 | 0.00 | 41 | 1002.6 |
| 20260504231527 | 51 | 295 | 0.0 | 0.0 | 0.00 | 0.00 | 0.00 | 40 | 1002.6 |
| 20260504230019 | 52 | 279 | 0.0 | 0.0 | 0.00 | 0.00 | 0.00 | 40 | 1002.4 |
| 20260504224517 | 52 | 297 | 0.0 | 0.0 | 0.00 | 0.00 | 0.00 | 40 | 1002.5 |
| 20260504223012 | 52 | 288 | 0.0 | 0.0 | 0.00 | 0.00 | 0.00 | 41 | 1002.1 |
| 20260504221509 | 53 | 360 | 0.0 | 0.0 | 0.00 | 0.00 | 0.00 | 42 | 1001.8 |
| 20260504220016 | 53 | 281 | 0.0 | 0.0 | 0.00 | 0.00 | 0.00 | 42 | 1001.4 |
| 20260504214503 | 53 | 279 | 0.0 | 0.0 | 0.00 | 0.00 | 0.00 | 42 | 1001.2 |
| 20260504213004 | 54 | 286 | 0.0 | 0.0 | 0.00 | 0.00 | 0.00 | 41 | 1000.9 |
| 20260504211600 | 54 | 297 | 0.0 | 0.0 | 0.00 | 0.00 | 0.00 | 40 | 1000.8 |
| 20260504210110 | 55 | 313 | 0.0 | 0.0 | 0.00 | 0.00 | 0.00 | 41 | 1000.6 |
| 20260504204602 | 54 | 302 | 0.0 | 0.0 | 0.00 | 0.00 | 0.00 | 41 | 1000.5 |
| 20260504203054 | 55 | 272 | 0.0 | 0.0 | 0.00 | 0.00 | 0.00 | 42 | 1000.4 |
| 20260504201554 | 56 | 338 | 0.0 | 0.0 | 0.00 | 0.00 | 0.00 | 41 | 1000.3 |
| 20260504200057 | 56 | 274 | 0.0 | 0.0 | 0.00 | 0.00 | 0.00 | 41 | 1000.1 |
| 20260504194536 | 57 | 272 | 0.0 | 0.0 | 0.00 | 0.00 | 0.00 | 40 | 1000.1 |
| 20260504193022 | 56 | 280 | 0.0 | 0.0 | 0.00 | 0.00 | 0.00 | 42 | 1000.0 |
| 20260504191519 | 56 | 330 | 0.0 | 0.0 | 0.00 | 0.00 | 0.00 | 43 | 999.6 |
| 20260504190020 | 57 | 282 | 0.0 | 0.0 | 0.00 | 0.00 | 0.00 | 41 | 999.5 |
| 20260504184518 | 57 | 250 | 0.0 | 0.0 | 0.00 | 0.00 | 0.00 | 42 | 999.4 |
| 20260504183017 | 57 | 300 | 0.0 | 0.0 | 0.00 | 0.00 | 0.00 | 42 | 999.1 |
| 20260504181516 | 57 | 269 | 0.0 | 0.0 | 0.00 | 0.00 | 0.00 | 41 | 998.8 |
| 20260504180018 | 57 | 266 | 0.0 | 0.0 | 0.00 | 0.00 | 0.00 | 40 | 998.6 |
| 20260504174514 | 58 | 269 | 0.0 | 0.0 | 0.00 | 0.00 | 0.00 | 39 | 998.4 |
| 20260504173018 | 58 | 288 | 0.0 | 0.0 | 0.00 | 0.00 | 0.00 | 38 | 998.3 |
| 20260504171614 | 58 | 232 | 0.0 | 0.0 | 0.00 | 0.00 | 0.00 | 40 | 998.2 |
| 20260504081516 | 54 | 205 | 0.0 | 0.0 | 0.00 | 0.00 | 0.00 | 47 | 996.8 |
| 20260504044532 | 56 | 203 | 0.0 | 0.0 | 0.00 | 0.00 | 0.00 | 43 | 1000.6 |
| 20260504043030 | 56 | 211 | 0.0 | 0.0 | 0.00 | 0.00 | 0.00 | 43 | 1000.9 |
| 20260504041527 | 57 | 232 | 0.0 | 0.0 | 0.00 | 0.00 | 0.00 | 42 | 1001.1 |
| 20260504040028 | 58 | 232 | 0.0 | 0.0 | 0.00 | 0.00 | 0.00 | 40 | 1001.5 |
| 20260504034534 | 58 | 232 | 0.0 | 0.0 | 0.00 | 0.00 | 0.00 | 40 | 1001.8 |
| 20260504033023 | 58 | 232 | 0.0 | 0.0 | 0.00 | 0.00 | 0.00 | 39 | 1002.1 |
| 20260504031517 | 58 | 232 | 0.0 | 0.0 | 0.00 | 0.00 | 0.00 | 40 | 1002.2 |
| 20260504030015 | 58 | 235 | 0.0 | 0.0 | 0.00 | 0.00 | 0.00 | 40 | 1002.3 |
| 20260504024513 | 59 | 236 | 0.0 | 0.0 | 0.00 | 0.00 | 0.00 | 38 | 1002.3 |
| 20260504023011 | 60 | 236 | 0.0 | 0.0 | 0.00 | 0.00 | 0.00 | 36 | 1002.4 |
| 20260504021511 | 61 | 236 | 0.0 | 0.0 | 0.00 | 0.00 | 0.00 | 34 | 1002.5 |
| 20260504020009 | 62 | 235 | 0.0 | 0.0 | 0.00 | 0.00 | 0.00 | 33 | 1002.6 |
| 20260504014515 | 63 | 235 | 0.0 | 0.0 | 0.00 | 0.00 | 0.00 | 33 | 1002.7 |
| 20260504013007 | 64 | 236 | 0.0 | 0.0 | 0.00 | 0.00 | 0.00 | 31 | 1002.7 |
| 20260504011504 | 65 | 254 | 0.0 | 0.0 | 0.00 | 0.00 | 0.00 | 30 | 1003.0 |
| 20260504010003 | 66 | 244 | 0.0 | 0.0 | 0.00 | 0.00 | 0.00 | 29 | 1003.0 |
| 20260504004600 | 67 | 254 | 0.0 | 0.0 | 0.00 | 0.00 | 0.00 | 29 | 1003.1 |